Home > Weather > Budapest > Past weeks

Flag for Hungary Past Weather in Budapest, Hungary — Yesterday and Last 2 Weeks

Now
81 °F

Sunny.


Feels Like: 83 °F
Forecast: 63 / 76 °F
Wind: 9 mph from Southeast

Location: Ferenc Liszt International Airport

Current Time: Jul 31, 2016 at 9:33:11 AM

Latest Report: Jul 31, 2016 at 9:00 AM


Visibility: 10 mi

Pressure: 29.95 "Hg

Humidity: 66%

Dew Point: 68 °F

Location of BudapestLocation

Past Weather in Budapest — Graph

°F

Budapest Temperature Yesterday

Maximum temperature yesterday: 88 °F (at 4:30 PM)
Minimum temperature yesterday: 63 °F (at 4:00 AM)
Average temperature yesterday: 76 °F

High & Low Weather Summary for the Past Weeks

 TemperatureHumidityPressure
High88 °F (Jul 30, 4:30 PM)100% (Jul 16, 7:30 PM)30.12 "Hg (Jul 16, 7:30 PM)
Low55 °F (Jul 18, 4:00 AM)39% (Jul 18, 2:30 PM)29.92 "Hg (Jul 16, 9:00 AM)
Average72 °F76%30.01 "Hg
* Reported Jul 16 8:00 AM — Jul 31 8:30 AM, Budapest, Weather by CustomWeather, © 2016

Note: Actual official high and low records may vary slightly from our data, if they occured in-between our weather recording intervals... More about our weather records

Advertising

Budapest Weather History for the Previous 24 Hours

Scroll right to see more
 ConditionsComfort  
Time TempWeatherWind HumidityBarometerVisibility
8:30 AM
Sun, Jul 31
79 °FSunny.8 mph74%29.95 "Hg10 mi
8:00 AM75 °FPassing clouds.5 mph78%29.98 "HgN/A
7:30 AM75 °FSunny.5 mph83%29.95 "Hg10 mi
7:00 AM72 °FSunny.3 mph88%29.95 "Hg10 mi
6:30 AM70 °FSunny.2 mph88%29.95 "Hg10 mi
6:00 AM68 °FClear.3 mph94%29.95 "Hg10 mi
5:30 AM66 °FClear.3 mph100%29.95 "Hg10 mi
5:00 AM66 °FClear.1 mph94%29.98 "Hg10 mi
4:30 AM66 °FClear.2 mph94%29.98 "Hg10 mi
4:00 AM68 °FClear.3 mph94%29.98 "Hg10 mi
3:30 AM66 °FClear.3 mph94%29.98 "Hg10 mi
3:00 AM68 °FClear.1 mph94%29.98 "Hg10 mi
2:30 AM66 °FClear.2 mph94%29.98 "Hg10 mi
2:00 AM68 °FClear.2 mph88%29.98 "Hg10 mi
1:30 AM68 °FClear.2 mph94%29.98 "Hg10 mi
1:00 AM70 °FClear.2 mph88%29.98 "Hg10 mi
12:30 AM70 °FClear.3 mph88%29.98 "Hg10 mi
12:00 AM70 °FClear.2 mph88%29.98 "Hg10 mi
11:30 PM
Sat, Jul 30
72 °FClear.1 mph88%29.98 "Hg10 mi
11:00 PM72 °FClear.1 mph88%29.98 "Hg10 mi
10:30 PM72 °FClear.2 mph88%29.98 "Hg10 mi
10:00 PM75 °FClear.2 mph78%29.95 "Hg10 mi
9:30 PM75 °FPassing clouds.5 mph78%29.95 "HgN/A
9:00 PM75 °FSunny.No wind78%29.95 "Hg10 mi
8:30 PM79 °FSunny.3 mph70%29.95 "Hg10 mi
8:00 PM81 °FSunny.6 mph66%29.95 "Hg10 mi
7:30 PM81 °FSunny.5 mph70%29.95 "Hg10 mi
7:00 PM82 °FSunny.5 mph62%29.95 "Hg10 mi
6:30 PM82 °FSunny.7 mph62%29.95 "Hg10 mi
6:00 PM84 °FSunny.6 mph58%29.95 "Hg10 mi
5:30 PM84 °FSunny.7 mph55%29.95 "Hg10 mi
5:00 PM86 °FSunny.10 mph49%29.95 "Hg10 mi
4:30 PM88 °FSunny.3 mph49%29.95 "Hg10 mi
4:00 PM84 °FSunny.7 mph51%29.95 "Hg10 mi
3:30 PM86 °FPassing clouds.9 mph49%29.95 "HgN/A
3:00 PM86 °FSunny.9 mph46%29.98 "Hg10 mi
2:30 PM84 °FPassing clouds.6 mph48%29.98 "HgN/A
2:00 PM84 °FSunny.7 mph51%29.98 "Hg10 mi
1:30 PM84 °FPassing clouds.8 mph48%29.98 "HgN/A
1:00 PM84 °FSunny.10 mph51%29.98 "Hg10 mi
12:30 PM84 °FPassing clouds.12 mph51%29.98 "HgN/A
12:00 PM84 °FScattered clouds.6 mph48%30.01 "HgN/A
11:30 AM82 °FPassing clouds.2 mph48%30.01 "HgN/A
11:00 AM82 °FPassing clouds.3 mph51%30.01 "HgN/A
10:30 AM81 °FPassing clouds.6 mph51%30.01 "HgN/A
10:00 AM81 °FPassing clouds.5 mph48%30.01 "HgN/A
9:30 AM81 °FSunny.3 mph58%30.01 "Hg10 mi
9:00 AM79 °FSunny.3 mph61%30.01 "Hg10 mi
Weather by CustomWeather, © 2016

See weather overviewHow to use our weather pages